Clinton-Sherman, OK

6:28 AM CDT on August 18, 2017 (GMT -0500)
Clinton-Sherman

Weather History for KCSM - September, 2014

Change the Weather History Date:

Wednesday, September 3, 2014

  Actual Average Record
Temperature  
Mean Temperature 86 °F -  
Max Temperature 99 °F 89 °F 106 °F (2000)
Min Temperature 75 °F 65 °F 57 °F (2008)
Cooling Degree Days 22    
Growing Degree Days 36 (Base 50)    
Moisture  
Dew Point 64 °F    
Average Humidity 50    
Maximum Humidity 74    
Minimum Humidity 30    
Precipitation  
Precipitation 0.00 in - - ()
Sea Level Pressure  
Sea Level Pressure 29.84 in    
Wind  
Wind Speed 18 mph (South)    
Max Wind Speed 28 mph    
Max Gust Speed 36 mph    
Visibility 10 miles    
Events      
Averages and records for this station are not official NWS values.
T = Trace of Precipitation, MM = Missing Value Source: NWS Daily Summary

Daily Weather History Graph

Daily Weather History Graph

Search for Another Location

Airport or City:

Trip Planner

Search our weather history database for the weather conditions in past years. The results will help you decide how hot, cold, wet, or windy it might be!

Date:

Astronomy

Sep. 03, 2014 Rise Set
Actual Time 7:10 AM CDT 8:00 PM CDT
Civil Twilight 6:44 AM CDT 8:26 PM CDT
Nautical Twilight 6:14 AM CDT 8:57 PM CDT
Astronomical Twilight 5:42 AM CDT 9:28 PM CDT
Moon 3:37 PM CDT (9/3) 1:12 AM CDT (9/3)
Length of Visible Light 13h 41m
Length of Day
12h 50m
Waxing Gibbous, 64% of the Moon is Illuminated
Sep 3
Waxing Gibbous
Sep 8
Full
Sep 15
Last Quarter
Sep 24
New
Oct 1
First Quarter

Hourly Weather History & Observations

Time (CDT) Temp. Heat Index Dew Point Humidity Pressure Visibility Wind Dir Wind Speed Gust Speed Precip Events Conditions
12:53 AM 82.0 °F 83.8 °F 64.9 °F 56% 29.83 in 10.0 mi South 18.4 mph - N/A   Clear
1:53 AM 80.1 °F 81.9 °F 64.9 °F 60% 29.83 in 10.0 mi South 17.3 mph - N/A   Clear
2:53 AM 79.0 °F - 64.9 °F 62% 29.83 in 10.0 mi SSE 15.0 mph - N/A   Clear
3:53 AM 79.0 °F - 64.9 °F 62% 29.83 in 10.0 mi South 17.3 mph - N/A   Clear
4:53 AM 78.1 °F - 66.0 °F 66% 29.84 in 10.0 mi South 15.0 mph - N/A   Clear
5:53 AM 75.9 °F - 66.9 °F 74% 29.85 in 10.0 mi SSE 13.8 mph - N/A   Clear
6:53 AM 75.9 °F - 66.9 °F 74% 29.86 in 10.0 mi South 13.8 mph - N/A   Clear
7:53 AM 77.0 °F - 68.0 °F 74% 29.87 in 10.0 mi South 16.1 mph - N/A   Clear
8:53 AM 81.0 °F 83.8 °F 68.0 °F 65% 29.88 in 10.0 mi South 18.4 mph - N/A   Clear
9:53 AM 84.9 °F 87.6 °F 66.9 °F 55% 29.89 in 10.0 mi South 23.0 mph 31.1 mph N/A   Clear
10:53 AM 88.0 °F 90.7 °F 66.9 °F 49% 29.89 in 10.0 mi South 20.7 mph 26.5 mph N/A   Clear
11:53 AM 91.9 °F 94.5 °F 66.0 °F 42% 29.89 in 10.0 mi SSW 18.4 mph 27.6 mph N/A   Clear
12:53 PM 95.0 °F 97.4 °F 64.9 °F 37% 29.86 in 10.0 mi South 23.0 mph 29.9 mph N/A   Clear
1:53 PM 97.0 °F 99.3 °F 64.0 °F 34% 29.85 in 10.0 mi South 23.0 mph 31.1 mph N/A   Clear
2:53 PM 97.0 °F 98.3 °F 63.0 °F 32% 29.83 in 10.0 mi South 24.2 mph 29.9 mph N/A   Partly Cloudy
3:53 PM 98.1 °F 99.1 °F 62.1 °F 30% 29.81 in 10.0 mi South 18.4 mph 31.1 mph N/A   Clear
4:53 PM 96.1 °F 96.4 °F 61.0 °F 31% 29.80 in 10.0 mi South 24.2 mph 35.7 mph N/A   Partly Cloudy
5:53 PM 96.1 °F 96.4 °F 61.0 °F 31% 29.79 in 10.0 mi South 27.6 mph 33.4 mph N/A   Partly Cloudy
6:53 PM 93.0 °F 94.2 °F 63.0 °F 37% 29.80 in 10.0 mi South 23.0 mph - N/A   Clear
7:53 PM 90.0 °F 90.6 °F 63.0 °F 40% 29.80 in 10.0 mi South 20.7 mph 29.9 mph N/A   Clear
8:53 PM 88.0 °F 88.7 °F 63.0 °F 43% 29.82 in 10.0 mi South 17.3 mph - N/A   Clear
9:53 PM 86.0 °F 86.3 °F 62.1 °F 44% 29.83 in 10.0 mi South 17.3 mph - N/A   Clear
10:53 PM 84.9 °F 85.4 °F 62.1 °F 46% 29.83 in 10.0 mi South 15.0 mph - N/A   Clear
11:53 PM 84.0 °F 84.9 °F 63.0 °F 49% 29.83 in 10.0 mi South 13.8 mph - N/A   Clear